Location: Krasnoyarskiy Pitomnik
(51.1333°N, 71.6167°E)
Time: 19:54:24
(UTC+00:00)

Vanguard 2 - Pass Details

Date: 23 April 2024
Orbit: 553 x 2914 km, 32.9° (Epoch: 22 May)

Event Time Altitude Azimuth Distance (km) Brightness Sun altitude
Exits shadow 20:04:01 30° 171° (S) 3,903 10.5 -25.0°
Maximum altitude 20:06:38 32° 156° (SSE) 3,941 10.7 -24.9°
Drops below altitude 10° 20:20:44 10° 103° (ESE) 5,739 12.0 -24.2°
Sets 20:25:53 0° 95° (E) 6,702 12.5 -23.9°
